Location: Cul de Sac
(18.0387°N, 63.0654°W)
Time: 07:12:21
(UTC+00:00)

AO-7 - Visible Passes

Search period start: 26 September 2021 00:00
Search period end: 06 October 2021 00:00
Orbit: 1440 x 1458 km, 101.9° (Epoch: 25 September)

Date Brightness Start Highest point End Pass type
(mag) Time Alt. Az. Time Alt. Az. Time Alt. Az.
26 Sep ? 07:08:05 10° NE 07:14:57 29° ESE 07:21:45 10° SSE visible
26 Sep ? 08:59:52 10° N 09:07:29 42° WNW 09:15:06 10° SW visible
27 Sep ? 07:59:34 10° NNE 08:07:51 73° ESE 08:16:05 10° S visible
28 Sep ? 07:01:26 10° NE 07:07:54 25° ESE 07:14:18 10° SSE visible
28 Sep ? 08:52:41 10° N 09:00:30 48° WNW 09:08:19 10° SW visible
29 Sep ? 07:52:37 10° NNE 08:00:49 65° ESE 08:08:59 10° S visible
30 Sep ? 06:54:52 10° NE 07:00:50 22° E 07:06:46 10° SSE visible
30 Sep ? 08:45:32 10° N 08:53:31 54° WNW 09:01:29 10° SW visible
01 Oct ? 07:45:41 10° NNE 07:53:48 57° ESE 08:01:51 10° S visible
01 Oct ? 09:40:07 10° NNW 09:45:53 21° WNW 09:51:41 10° WSW visible
02 Oct ? 06:48:25 10° ENE 06:53:46 19° E 06:59:06 10° SE visible
02 Oct ? 08:38:25 10° N 08:46:32 61° WNW 08:54:37 10° SSW visible
03 Oct ? 07:38:48 10° NNE 07:46:46 51° ESE 07:54:41 10° S visible
03 Oct ? 09:32:43 10° NNW 09:38:57 24° WNW 09:45:12 10° WSW visible
04 Oct ? 06:42:06 10° ENE 06:46:43 16° E 06:51:18 10° SE visible
04 Oct ? 08:31:20 10° N 08:39:32 69° WNW 08:47:43 10° SSW visible
05 Oct ? 07:31:56 10° NNE 07:39:43 45° ESE 07:47:28 10° S visible
05 Oct ? 09:25:22 10° NNW 09:32:00 28° WNW 09:38:39 10° WSW visible
